Regional Weather Roundup
Issued by NWS Sioux Falls, SD

Home | Current Version | Previous Version | Graphics & Text | Print | Product List | Glossary Off
Versions: 1 2 3 4 5 6 7 8 9 10 11 12 13 14 15 16 17 18 19 20 21 22 23 24 25 26 27 28 29 30 31 32 33 34 35 36 37 38 39 40 41 42 43 44 45 46 47 48 49 50

000
ASUS43 KFSD 242110
RWRFSD

WEATHER ROUNDUP FOR SE SOUTH DAKOTA/SW MINNESOTA/NW IOWA
NATIONAL WEATHER SERVICE SIOUX FALLS SD
300 PM CST FRI NOV 24 2017

NOTE: "FAIR" INDICATES FEW OR NO CLOUDS BELOW 12,000 FEET WITH NO
SIGNIFICANT WEATHER AND OR OBSTRUCTIONS TO VISIBILITY.


SDZ038>040-050-052>070-242200-
SOUTHEAST SOUTH DAKOTA

CITY           SKY/WX    TMP DP  RH WIND       PRES   REMARKS
BROOKINGS      MOSUNNY   51  39  63 NW25G37   29.62R
CHAMBERLAIN    MOSUNNY   58  38  47 NW23G30   29.75R
HURON          SUNNY     56  32  40 N25G37    29.69R
MADISON        FAIR      54  39  58 NW32G41   29.64R
MITCHELL       SUNNY     57  35  43 NW25G38   29.70R
SIOUX FALLS    MOSUNNY   58  42  55 NW32G47   29.60R
WINNER         FAIR      59  35  40 NW30G40   29.77R
YANKTON        MOSUNNY   60  38  43 NW36      29.65R
$$

MNZ071-072-080-081-089-090-097-098-242200-
SOUTHWEST MINNESOTA

CITY           SKY/WX    TMP DP  RH WIND       PRES   REMARKS
FAIRMONT       CLOUDY    60  39  45 NW21G35   29.47R
JACKSON        CLOUDY    55  39  54 W20G35    29.51R
LUVERNE        CLOUDY    55  39  54 NW31G38   29.57R
MARSHALL       MOSUNNY   53  41  63 NW24G38   29.55R
MONTEVIDEO     MOSUNNY   52  41  66 N23G31    29.55R
PIPESTONE      MOSUNNY   54  39  58 N25G36    29.58R
REDWOOD FALLS  CLOUDY    53  42  66 NW22G33   29.50R
WINDOM           N/A     55  37  50 W25       29.51R
WORTHINGTON    CLOUDY    55  42  61 NW29      29.55R
$$

IAZ001>003-012>014-020>022-031-032-NEZ013-014-SDZ071-242200-
NORTHWEST IOWA

CITY           SKY/WX    TMP DP  RH WIND       PRES   REMARKS
CHEROKEE       MOSUNNY   65  34  32 NW20G28   29.54S
DENISON        SUNNY     66  39  37 N25G36    29.58R
ESTHERVILLE    CLOUDY    60  38  43 NW18G32   29.49S
LE MARS        MOSUNNY   61  41  48 NW30G39   29.58R
ORANGE CITY    CLOUDY    61  45  55 NW30G39   29.58R
SHELDON        MOSUNNY   57  41  54 NW26G39   29.55R
SIOUX CITY     PTSUNNY   64  36  35 NW32G45   29.58R
SPENCER        CLOUDY    60  40  47 NW28G39   29.53R
STORM LAKE     SUNNY     64  36  34 NW24G39   29.54R
$$

ABBREVIATIONS USED IN REMARKS
   TC - TEMPERATURE IN CELSIUS
  WCI - WIND CHILL INDEX
   HX - HEAT INDEX
  VSB - VISIBILITY





USA.gov is the U.S. government's official web portal to all federal, state and local government web resources and services.